Location: Huisseau
(47.5933°N, 1.4533°E)
Time: 22:02:05
(UTC+00:00)

CENTAUR R/B - Visible Passes

Search period start: 18 November 2025 00:00
Search period end: 28 November 2025 00:00
Orbit: 635 x 1546 km, 63.4° (Epoch: 18 November)

Date Brightness Start Highest point End Pass type
(mag) Time Alt. Az. Time Alt. Az. Time Alt. Az.
18 Nov 5.3 01:17:37 17° NE 01:17:37 17° NE 01:19:56 10° ENE visible
18 Nov 4.0 03:04:44 39° N 03:06:06 42° NNE 03:14:39 10° ESE visible
18 Nov 3.3 04:51:52 24° NW 04:57:35 80° SW 05:07:02 10° SSE visible
19 Nov 4.5 02:17:26 32° NE 02:17:26 32° NE 02:24:04 10° E visible
19 Nov 3.3 04:04:34 40° NNW 04:08:06 76° NE 04:17:31 10° SE visible
19 Nov 3.9 05:51:42 13° NW 05:58:34 37° WSW 06:06:53 10° S visible
20 Nov 5.1 01:30:12 20° ENE 01:30:12 20° ENE 01:33:20 10° ENE visible
20 Nov 3.6 03:17:21 54° NNE 03:18:28 57° NE 03:27:36 10° ESE visible
20 Nov 3.5 05:04:30 26° WNW 05:09:25 54° WSW 05:18:28 10° SSE visible
21 Nov 4.2 02:30:14 40° ENE 02:30:14 40° ENE 02:37:19 10° ESE visible
21 Nov 3.2 04:17:23 49° NW 04:20:05 76° SW 04:29:31 10° SSE visible
21 Nov 4.4 06:04:32 12° WNW 06:10:00 23° WSW 06:16:42 10° SSW visible
22 Nov 5.0 01:43:13 22° ENE 01:43:13 22° ENE 01:46:45 10° E visible
22 Nov 3.2 03:30:23 79° NNE 03:30:37 79° NE 03:40:03 10° SE visible
22 Nov 3.9 05:17:32 26° WNW 05:21:02 35° WSW 05:29:11 10° S visible
22 Nov 4.1 19:07:06 10° S 19:08:08 16° S 19:08:08 16° S visible
23 Nov 4.0 02:43:29 46° E 02:43:29 46° E 02:50:11 10° ESE visible
23 Nov 3.4 04:30:39 48° W 04:31:53 51° WSW 04:40:52 10° S visible
23 Nov 4.8 06:17:59 10° W 06:21:09 12° W 06:24:24 10° WSW visible
23 Nov 3.6 18:18:56 10° SSE 18:21:19 21° SE 18:21:19 21° SE visible
23 Nov 4.6 20:07:36 10° SW 20:08:29 15° SW 20:08:29 15° SW visible
24 Nov 5.0 01:56:41 23° E 01:56:41 23° E 01:59:57 10° ESE visible
24 Nov 3.4 03:43:51 65° S 03:43:51 65° S 03:51:59 10° SSE visible
24 Nov 4.4 05:31:02 20° W 05:32:24 21° WSW 05:38:50 10° SSW visible
24 Nov 3.9 17:31:50 10° SE 17:34:25 14° ESE 17:34:25 14° ESE visible
24 Nov 3.2 19:18:19 10° SSW 19:21:35 40° SSW 19:21:35 40° SSW visible
25 Nov 4.2 02:57:09 40° SE 02:57:09 40° SE 03:02:36 10° SE visible
25 Nov 4.0 04:44:20 32° WSW 04:44:20 32° WSW 04:51:28 10° S visible
25 Nov 2.5 18:29:28 10° SSW 18:34:38 49° ESE 18:34:38 49° ESE visible
25 Nov 4.4 20:19:47 10° WSW 20:21:47 22° W 20:21:47 22° W visible
26 Nov 5.1 02:10:30 19° ESE 02:10:30 19° ESE 02:12:46 10° ESE visible
26 Nov 4.1 03:57:42 35° SSW 03:57:42 35° SSW 04:03:15 10° S visible
26 Nov 5.0 05:44:53 11° WSW 05:44:53 11° WSW 05:45:55 10° WSW visible
26 Nov 3.2 17:41:13 10° S 17:45:48 29° ESE 17:47:35 25° E visible
26 Nov 3.0 19:30:06 10° SW 19:34:44 55° W 19:34:44 55° W visible
27 Nov 4.7 03:11:07 25° SSE 03:11:07 25° SSE 03:14:25 10° SSE visible
27 Nov 4.8 04:58:18 16° SW 04:58:18 16° SW 05:00:56 10° SSW visible
27 Nov 3.9 16:53:53 10° SE 16:57:08 16° ESE 17:00:27 11° ENE visible
27 Nov 2.3 18:40:46 10° SW 18:46:17 86° SE 18:47:36 59° NE visible
27 Nov 4.5 20:32:19 10° W 20:34:44 22° WNW 20:34:44 22° WNW visible
